{"data":{"norad_id":53757,"intl_designator":"2022-108A","name":"CENTISPACE-1 S3","alt_names":[],"object_type":"PAYLOAD","status":"ACTIVE","operator":null,"country":"PRC","launch_date":"2022-09-06","launch_site_code":"JSC","launch_vehicle":null,"mission":null,"orbit_class":"UNKNOWN","rcs_meters":null,"size_class":null,"mass_kg":null,"dimensions":null,"purposes":[],"wikipedia_slug":null,"has_3d_model":false,"image_url":null,"decayed_at":null,"tle_current":{"epoch":"2026-05-25T03:45:34.990272Z","epoch_age_seconds":57559,"freshness":"FRESH","line1":"1 53757U 22108A   26145.15665498  .00000065  00000+0  51168-4 0  9997","line2":"2 53757  53.5309 150.4899 0008258 286.2603  73.7463 14.61225406198166","mean_motion":14.61225406,"eccentricity":0.0008258,"inclination_deg":53.5309,"raan_deg":150.4899,"arg_perigee_deg":286.2603,"mean_anomaly_deg":73.7463,"bstar":5.1168e-5,"rev_number":19816,"period_min":98.547424243183,"perigee_km":683.38380597267,"apogee_km":695.05625284244,"semimajor_km":7067.3570294076,"source":"CELESTRAK","updated_at":"2026-05-25T13:37:58.369601Z"}}}